Location: Caltech
(34.1382°N, 118.1253°W)
Time: 23:52:58
(UTC-07:00)

Cosmos 1606 - Visible Passes

Search period start: 25 May 2016 00:00
Search period end: 04 June 2016 00:00
Orbit: 508 x 534 km, 82.5° (Epoch: 24 May)

Date Brightness Start Highest point End Pass type
(mag) Time Alt. Az. Time Alt. Az. Time Alt. Az.
25 May 5.8 04:55:47 10° NE 04:58:13 16° ENE 05:00:39 10° ESE visible
26 May 5.9 04:42:54 10° NE 04:44:57 14° ENE 04:46:58 10° ESE visible
27 May 6.0 04:30:13 10° NE 04:31:41 12° ENE 04:33:08 10° E visible
31 May 2.6 05:10:58 10° NNW 05:14:44 66° W 05:18:28 10° S visible
01 Jun 2.6 04:57:42 10° N 05:01:30 80° W 05:05:16 10° S visible
02 Jun 2.7 04:44:28 10° N 04:48:15 85° E 04:52:03 10° S visible
03 Jun 2.9 04:31:13 10° N 04:35:01 71° E 04:38:47 10° SSE visible
